Skip Page Navigation
NASA JPL Caltech
NASA Logo - Jet Propulsion Laboratory + View the NASA Portal
+ Near-Earth Object (NEO) Program
Search JPL
JPL Home Earth Solar System Stars & Galaxies Technology
JPL Solar System Dynamics
BODIES ORBITS EPHEMERIDES TOOLS PHYSICAL DATA DISCOVERY FAQ SITE MAP
JPL Small-Body Database Browser
Search: [ help ]  
(2010 BB)
Classification: Aten [NEO, PHA]          SPK-ID: 3485970
Ephemeris | Orbit Diagram | Orbital Elements | Physical Parameters | Close-Approach Data ]

[ hide orbit diagram ]
Orbit Diagram
Note: Make sure you have Java enabled on your browser to see the applet. This applet is provided as a 3D orbit visualization tool. The applet was implemented using 2-body methods, and hence should not be used for determining accurate long-term trajectories (over several years or decades) or planetary encounter circumstances. For accurate long-term ephemerides, please instead use our Horizons system.
Orbit Viewer

Additional Notes: the orbits shown in the applet are color coded. The planets are white lines, and the asteroid/comet is a blue line. The bright white line indicates the portion of the orbit that is above the ecliptic plane, and the darker portion is below the ecliptic plane. Likewise for the asteroid/comet orbit, the light blue indicates the portion above the ecliptic plane, and the dark blue the portion below the ecliptic plane.

Orbit Viewer applet originally written and kindly provided by Osamu Ajiki (AstroArts), and further modified by Ron Baalke (JPL).


Orbital Elements at Epoch 2456400.5 (2013-Apr-18.0) TDB
Reference: JPL 28 (heliocentric ecliptic J2000)
 Element Value Uncertainty (1-sigma)   Units 
e .2771338760618205 1.0562e-06  
a .8203916025162455 2.0868e-08 AU
q .59303329782235 8.778e-07 AU
i 10.03469478394879 8.5609e-05 deg
node 279.8690501435022 3.3033e-05 deg
peri 28.97969896154968 0.00013263 deg
M 269.6213011235462 0.00029281 deg
tp 2456468.638696363238
(2013-Jun-25.13869636)
0.00021893 JED
period 271.4127443270426
0.74
1.0356e-05
2.835e-08
d
yr
n 1.326393131953351 5.0609e-08 deg/d
Q 1.047749907210141 2.6652e-08 AU
  Orbit Determination Parameters
   # obs. used (total)      148  
   data-arc span      1137 days (3.11 yr)  
   first obs. used      2010-01-16  
   last obs. used      2013-02-26  
   planetary ephem.      DE405  
   SB-pert. ephem.      SB405-CPV-2  
   condition code      1  
   fit RMS      .4138  
   data source      ORB  
   producer      Otto Matic  
   solution date      2013-Feb-27 00:52:02  

Additional Information
 Earth MOID = .0109613 AU 
 T_jup = 7.094 
[ show covariance matrix ]

Ephemeris | Orbit Diagram | Orbital Elements | Physical Parameters | Close-Approach Data ]

Physical Parameter Table
Parameter Symbol Value Units Sigma Reference Notes
absolute magnitude H 20.005 mag .48344 10 autocmod 2.5a

[ show close-approach data ]
Ephemeris | Orbit Diagram | Orbital Elements | Physical Parameters | Close-Approach Data ]
ABOUT SSD CREDITS/AWARDS PRIVACY/COPYRIGHT GLOSSARY LINKS
FirstGov 2013-May-19 05:36 UT
(server date/time)  
NASA Home Page
Site Manager:   Donald K. Yeomans
Webmaster  Alan B. Chamberlin